Location: Newark
(23.1300°N, 73.6109°E)
Time: 23:04:17
(UTC+00:00)

NOAA 18 - Pass Details

Date: 19 June 2021
Orbit: 840 x 861 km, 99.0° (Epoch: 27 July)

Event Time Altitude Azimuth Distance (km) Brightness Sun altitude
Exits shadow 17:13:44 34° 296° (WNW) 1,378 6.6 -35.9°
Drops below altitude 10° 17:17:24 10° 329° (NNW) 2,488 8.4 -36.4°
Sets 17:19:56 0° 337° (NNW) 3,429 9.3 -36.7°
